Location: Newark
(45.5000°N, 11.4167°E)
Time: 01:43:00
(UTC+00:00)

Courier 1B Rocket - All Passes

Search period start: 21 August 2019 00:00
Search period end: 31 August 2019 00:00
Orbit: 920 x 1202 km, 28.3° (Epoch: 19 August)

Date Brightness Start Highest point End Pass type
(mag) Time Alt. Az. Time Alt. Az. Time Alt. Az.
21 Aug - 03:31:59 10° SSW 03:36:55 19° SSE 03:41:56 10° SE visible
21 Aug - 05:23:59 10° SW 05:29:26 21° S 05:34:55 10° SE daylight
21 Aug - 07:18:04 10° SW 07:21:54 14° SSW 07:25:41 10° S daylight
22 Aug - 02:31:55 10° SSW 02:36:06 16° SSE 02:40:22 10° SE visible
22 Aug - 04:23:06 10° SW 04:28:33 21° S 04:34:04 10° SE daylight
22 Aug - 06:16:20 10° SW 06:21:04 17° SSW 06:25:47 10° SSE daylight
23 Aug - 01:32:35 10° S 01:35:20 12° SSE 01:38:09 10° SE visible
23 Aug - 03:22:29 10° SW 03:27:41 20° S 03:33:00 10° SE visible
23 Aug - 05:15:02 10° SW 05:20:12 19° S 05:25:25 10° SSE daylight
23 Aug - 07:10:39 10° SW 07:12:35 11° SSW 07:14:29 10° S daylight
24 Aug - 02:22:08 10° SSW 02:26:50 18° SSE 02:31:41 10° SE visible
24 Aug - 04:14:00 10° SW 04:19:19 21° S 04:24:45 10° SE daylight
24 Aug - 06:08:00 10° SW 06:11:47 14° SSW 06:15:35 10° S daylight
25 Aug - 01:22:13 10° SSW 01:26:04 15° SSE 01:30:01 10° SE visible
25 Aug - 03:13:14 10° SW 03:18:27 21° S 03:23:49 10° SE visible
25 Aug - 05:06:22 10° SW 05:10:57 17° SSW 05:15:36 10° SSE daylight
26 Aug - 00:23:07 10° S 00:25:21 12° SSE 00:27:38 10° SE visible
26 Aug - 02:12:43 10° SW 02:17:37 19° S 02:22:42 10° SE visible
26 Aug - 04:05:10 10° SW 04:10:06 19° S 04:15:10 10° SSE daylight
26 Aug - 06:00:51 10° SW 06:02:29 11° SSW 06:04:08 10° S daylight
27 Aug - 01:12:30 10° SSW 01:16:50 17° SSE 01:21:20 10° SE visible
27 Aug - 03:04:14 10° SW 03:09:15 20° S 03:14:27 10° SE visible
27 Aug - 04:58:11 10° SW 05:01:41 14° SSW 05:05:16 10° S daylight
28 Aug - 00:12:41 10° SSW 00:16:07 14° SSE 00:19:38 10° SE visible
28 Aug - 02:03:34 10° SW 02:08:26 20° S 02:13:30 10° SE visible
28 Aug - 03:56:37 10° SW 04:00:53 16° SSW 04:05:16 10° SSE visible
28 Aug - 23:13:57 10° S 23:15:27 11° SSE 23:16:59 10° SE night (unlit)
29 Aug - 01:03:08 10° SW 01:07:39 18° S 01:12:22 10° SE visible
29 Aug - 02:55:29 10° SW 03:00:04 18° S 03:04:49 10° SSE visible
29 Aug - 04:51:57 10° SSW 04:52:25 10° SSW 04:52:54 10° SSW daylight
30 Aug - 00:02:59 10° SSW 00:06:55 16° SSE 00:11:00 10° SE visible
30 Aug - 01:54:38 10° SW 01:59:16 19° S 02:04:05 10° SE visible
30 Aug - 03:48:36 10° SW 03:51:39 13° SSW 03:54:45 10° S visible
30 Aug - 23:03:17 10° S 23:06:15 13° SSE 23:09:17 10° SE night (unlit)
